Time,TemperatureF,DewpointF,PressureIn,WindDirection,WindDirectionDegrees,WindSpeedMPH,WindSpeedGustMPH,Humidity,HourlyPrecipIn,Conditions,Clouds,dailyrainin,SoftwareType,DateUTC
2013-03-07 00:02:00,31.0,26.0,-100.00,South,175,2.0,5.0,80,0.00,,,-99.99,,2013-03-07 05:02:00,
2013-03-07 00:12:00,31.0,26.0,-100.00,SSW,205,1.0,5.0,80,0.00,,,-99.99,,2013-03-07 05:12:00,
2013-03-07 00:22:00,31.0,26.0,-100.00,SSW,195,1.0,4.0,80,0.00,,,-99.99,,2013-03-07 05:22:00,
2013-03-07 00:32:00,31.0,25.0,-100.00,SW,230,1.0,3.0,79,0.00,,,-99.99,,2013-03-07 05:32:00,
2013-03-07 00:42:00,31.0,25.0,-100.00,SSW,205,2.0,4.0,80,0.00,,,-99.99,,2013-03-07 05:42:00,
2013-03-07 00:52:00,31.0,25.0,-100.00,SSW,205,2.0,7.0,80,0.00,,,-99.99,,2013-03-07 05:52:00,
2013-03-07 01:01:00,31.0,25.0,-100.00,SW,220,2.0,6.0,79,0.00,,,-99.99,,2013-03-07 06:01:00,
2013-03-07 01:11:00,31.0,26.0,-100.00,SSW,205,2.0,7.0,79,0.00,,,-99.99,,2013-03-07 06:11:00,
2013-03-07 01:21:00,31.0,26.0,-100.00,South,185,0.0,5.0,79,0.00,,,-99.99,,2013-03-07 06:21:00,
2013-03-07 01:32:00,31.0,26.0,-100.00,SSW,200,1.0,4.0,79,0.00,,,-99.99,,2013-03-07 06:32:00,
2013-03-07 01:42:00,31.0,26.0,-100.00,SW,215,1.0,5.0,80,0.00,,,-99.99,,2013-03-07 06:42:00,
2013-03-07 01:52:00,31.0,26.0,-100.00,SSW,205,1.0,4.0,80,0.00,,,-99.99,,2013-03-07 06:52:00,
2013-03-07 02:01:00,31.0,26.0,-100.00,WSW,240,1.0,6.0,80,0.00,,,-99.99,,2013-03-07 07:01:00,
2013-03-07 02:11:00,31.0,26.0,-100.00,SW,220,2.0,4.0,80,0.00,,,-99.99,,2013-03-07 07:11:00,
2013-03-07 02:21:00,31.0,26.0,-100.00,SW,215,1.0,4.0,80,0.00,,,-99.99,,2013-03-07 07:21:00,
2013-03-07 02:32:00,31.0,26.0,-100.00,SW,225,1.0,3.0,80,0.00,,,-99.99,,2013-03-07 07:32:00,
2013-03-07 02:43:00,31.0,26.0,-100.00,SSW,195,2.0,4.0,80,0.00,,,-99.99,,2013-03-07 07:43:00,
2013-03-07 02:52:00,31.0,26.0,-100.00,SSW,200,0.0,4.0,80,0.00,,,-99.99,,2013-03-07 07:52:00,
2013-03-07 03:03:00,31.0,26.0,-100.00,SW,225,1.0,3.0,80,0.00,,,-99.99,,2013-03-07 08:03:00,
2013-03-07 03:12:00,31.0,26.0,-100.00,South,180,1.0,3.0,80,0.00,,,-99.99,,2013-03-07 08:12:00,
2013-03-07 03:23:00,31.0,26.0,-100.00,South,180,1.0,4.0,80,0.00,,,-99.99,,2013-03-07 08:23:00,
2013-03-07 03:33:00,31.0,26.0,-100.00,SE,135,1.0,4.0,80,0.00,,,-99.99,,2013-03-07 08:33:00,
2013-03-07 03:44:00,31.0,26.0,-100.00,SSW,205,1.0,3.0,80,0.00,,,-99.99,,2013-03-07 08:44:00,
2013-03-07 03:53:00,31.0,26.0,-100.00,SSW,205,1.0,3.0,80,0.00,,,-99.99,,2013-03-07 08:53:00,
2013-03-07 04:03:00,31.0,26.0,-100.00,SSE,165,1.0,3.0,80,0.00,,,-99.99,,2013-03-07 09:03:00,
2013-03-07 04:13:00,31.0,26.0,-100.00,SSW,200,1.0,4.0,80,0.00,,,-99.99,,2013-03-07 09:13:00,
2013-03-07 04:23:00,31.0,26.0,-100.00,SSW,210,0.0,4.0,80,0.00,,,-99.99,,2013-03-07 09:23:00,
2013-03-07 04:33:00,31.0,26.0,-100.00,SSW,205,0.0,3.0,80,0.00,,,-99.99,,2013-03-07 09:33:00,
2013-03-07 04:43:00,31.0,26.0,-100.00,SW,235,0.0,2.0,80,0.00,,,-99.99,,2013-03-07 09:43:00,
2013-03-07 04:52:00,31.0,26.0,-100.00,SSW,210,1.0,4.0,80,0.00,,,-99.99,,2013-03-07 09:52:00,
2013-03-07 05:03:00,31.0,26.0,-100.00,SW,235,1.0,4.0,80,0.00,,,-99.99,,2013-03-07 10:03:00,
2013-03-07 05:13:00,31.0,26.0,-100.00,SW,215,2.0,4.0,80,0.00,,,-99.99,,2013-03-07 10:13:00,
2013-03-07 05:23:00,31.0,26.0,-100.00,South,170,1.0,6.0,80,0.00,,,-99.99,,2013-03-07 10:23:00,
2013-03-07 05:33:00,31.0,26.0,-100.00,South,190,1.0,4.0,81,0.00,,,-99.99,,2013-03-07 10:33:00,
2013-03-07 05:43:00,31.0,26.0,-100.00,South,190,1.0,4.0,81,0.00,,,-99.99,,2013-03-07 10:43:00,
2013-03-07 05:52:00,31.0,27.0,-100.00,SSW,200,1.0,4.0,81,0.00,,,-99.99,,2013-03-07 10:52:00,
2013-03-07 06:03:00,31.0,27.0,-100.00,SSW,200,2.0,4.0,81,0.00,,,-99.99,,2013-03-07 11:03:00,
2013-03-07 06:12:00,31.0,27.0,-100.00,South,190,1.0,4.0,82,0.00,,,-99.99,,2013-03-07 11:12:00,
2013-03-07 06:23:00,32.0,27.0,-100.00,SSW,205,1.0,3.0,82,0.00,,,-99.99,,2013-03-07 11:23:00,
2013-03-07 06:33:00,32.0,27.0,-100.00,South,190,1.0,5.0,82,0.00,,,-99.99,,2013-03-07 11:33:00,
2013-03-07 06:43:00,31.0,27.0,-100.00,SSE,165,1.0,6.0,82,0.00,,,-99.99,,2013-03-07 11:43:00,
2013-03-07 06:53:00,31.0,27.0,-100.00,SSW,210,2.0,5.0,83,0.00,,,-99.99,,2013-03-07 11:53:00,
2013-03-07 07:03:00,31.0,27.0,-100.00,SSW,195,2.0,6.0,83,0.00,,,-99.99,,2013-03-07 12:03:00,
2013-03-07 07:12:00,31.0,27.0,-100.00,South,175,1.0,7.0,83,0.00,,,-99.99,,2013-03-07 12:12:00,
2013-03-07 07:23:00,31.0,27.0,-100.00,SW,225,2.0,6.0,83,0.00,,,-99.99,,2013-03-07 12:23:00,
2013-03-07 07:33:00,31.0,27.0,-100.00,SSW,210,3.0,7.0,84,0.00,,,-99.99,,2013-03-07 12:33:00,
2013-03-07 07:43:00,31.0,27.0,-100.00,SW,230,2.0,6.0,84,0.00,,,-99.99,,2013-03-07 12:43:00,
2013-03-07 07:52:00,31.0,27.0,-100.00,SSW,205,2.0,6.0,84,0.00,,,-99.99,,2013-03-07 12:52:00,
2013-03-07 08:03:00,32.0,28.0,-100.00,South,185,1.0,6.0,84,0.00,,,-99.99,,2013-03-07 13:03:00,
2013-03-07 08:12:00,32.0,28.0,-100.00,SSW,205,2.0,6.0,83,0.00,,,-99.99,,2013-03-07 13:12:00,
2013-03-07 08:22:00,32.0,28.0,-100.00,SW,220,2.0,6.0,83,0.00,,,-99.99,,2013-03-07 13:22:00,
2013-03-07 08:32:00,32.0,28.0,-100.00,South,185,1.0,6.0,83,0.00,,,-99.99,,2013-03-07 13:32:00,
2013-03-07 08:42:00,33.0,28.0,-100.00,SW,230,1.0,5.0,83,0.00,,,-99.99,,2013-03-07 13:42:00,
2013-03-07 08:53:00,33.0,28.0,-100.00,WSW,255,1.0,6.0,82,0.00,,,-99.99,,2013-03-07 13:53:00,
2013-03-07 09:02:00,33.0,29.0,-100.00,SW,225,1.0,6.0,81,0.00,,,-99.99,,2013-03-07 14:02:00,
2013-03-07 09:12:00,34.0,29.0,-100.00,SSW,200,2.0,6.0,81,0.00,,,-99.99,,2013-03-07 14:12:00,
2013-03-07 09:23:00,34.0,29.0,-100.00,South,185,3.0,7.0,81,0.00,,,-99.99,,2013-03-07 14:23:00,
2013-03-07 09:33:00,34.0,29.0,-100.00,South,185,3.0,7.0,81,0.00,,,-99.99,,2013-03-07 14:33:00,
2013-03-07 09:42:00,35.0,29.0,-100.00,SW,235,5.0,11.0,78,0.00,,,-99.99,,2013-03-07 14:42:00,
2013-03-07 09:53:00,35.0,29.0,-100.00,WSW,245,4.0,8.0,77,0.00,,,-99.99,,2013-03-07 14:53:00,
2013-03-07 10:03:00,37.0,30.0,-100.00,SW,235,4.0,8.0,74,0.00,,,-99.99,,2013-03-07 15:03:00,
2013-03-07 10:12:00,38.0,29.0,-100.00,WSW,245,4.0,9.0,71,0.00,,,-99.99,,2013-03-07 15:12:00,
2013-03-07 10:23:00,38.0,30.0,-100.00,SW,220,2.0,9.0,72,0.00,,,-99.99,,2013-03-07 15:23:00,
2013-03-07 10:32:00,36.0,29.0,-100.00,WSW,250,3.0,11.0,74,0.00,,,-99.99,,2013-03-07 15:32:00,
2013-03-07 10:42:00,36.0,29.0,-100.00,SW,220,3.0,9.0,73,0.00,,,-99.99,,2013-03-07 15:42:00,
2013-03-07 10:52:00,37.0,29.0,-100.00,WSW,240,2.0,9.0,73,0.00,,,-99.99,,2013-03-07 15:52:00,
2013-03-07 11:02:00,36.0,29.0,-100.00,SW,230,3.0,9.0,73,0.00,,,-99.99,,2013-03-07 16:02:00,
2013-03-07 11:13:00,37.0,29.0,-100.00,WSW,255,2.0,7.0,74,0.00,,,-99.99,,2013-03-07 16:13:00,
2013-03-07 11:23:00,36.0,29.0,-100.00,WSW,240,3.0,8.0,74,0.00,,,-99.99,,2013-03-07 16:23:00,
2013-03-07 11:33:00,37.0,29.0,-100.00,WSW,245,4.0,7.0,72,0.00,,,-99.99,,2013-03-07 16:33:00,
2013-03-07 11:43:00,38.0,30.0,-100.00,SW,215,2.0,7.0,71,0.00,,,-99.99,,2013-03-07 16:43:00,
2013-03-07 11:52:00,38.0,29.0,-100.00,WSW,245,4.0,9.0,71,0.00,,,-99.99,,2013-03-07 16:52:00,
2013-03-07 12:02:00,39.0,30.0,-100.00,SW,230,5.0,11.0,69,0.00,,,-99.99,,2013-03-07 17:02:00,
2013-03-07 12:12:00,38.0,30.0,-100.00,SW,225,2.0,11.0,71,0.00,,,-99.99,,2013-03-07 17:12:00,
2013-03-07 12:22:00,38.0,29.0,-100.00,SW,235,3.0,7.0,71,0.00,,,-99.99,,2013-03-07 17:22:00,
2013-03-07 12:33:00,38.0,30.0,-100.00,SW,225,2.0,8.0,71,0.00,,,-99.99,,2013-03-07 17:33:00,
2013-03-07 12:43:00,38.0,30.0,-100.00,WSW,240,2.0,10.0,72,0.00,,,-99.99,,2013-03-07 17:43:00,
2013-03-07 12:53:00,38.0,30.0,-100.00,SW,235,3.0,9.0,73,0.00,,,-99.99,,2013-03-07 17:53:00,
2013-03-07 13:04:00,37.0,29.0,-100.00,WSW,240,6.0,9.0,72,0.00,,,-99.99,,2013-03-07 18:04:00,
2013-03-07 13:13:00,38.0,30.0,-100.00,SW,220,1.0,9.0,72,0.00,,,-99.99,,2013-03-07 18:13:00,
2013-03-07 13:22:00,37.0,28.0,-100.00,West,270,6.0,11.0,70,0.00,,,-99.99,,2013-03-07 18:22:00,
2013-03-07 13:32:00,38.0,29.0,-100.00,SW,235,4.0,8.0,70,0.00,,,-99.99,,2013-03-07 18:32:00,
2013-03-07 13:42:00,37.0,29.0,-100.00,SW,220,4.0,8.0,71,0.00,,,-99.99,,2013-03-07 18:42:00,
2013-03-07 13:52:00,37.0,28.0,-100.00,West,280,4.0,6.0,70,0.00,,,-99.99,,2013-03-07 18:52:00,
2013-03-07 14:03:00,38.0,29.0,-100.00,West,265,4.0,9.0,68,0.00,,,-99.99,,2013-03-07 19:03:00,
2013-03-07 14:12:00,38.0,28.0,-100.00,West,280,6.0,9.0,65,0.00,,,-99.99,,2013-03-07 19:12:00,
2013-03-07 14:23:00,39.0,29.0,-100.00,WSW,245,4.0,10.0,64,0.00,,,-99.99,,2013-03-07 19:23:00,
2013-03-07 14:35:00,38.0,27.0,-100.00,WSW,245,5.0,10.0,65,0.00,,,-99.99,,2013-03-07 19:35:00,
2013-03-07 14:43:00,38.0,28.0,-100.00,West,280,4.0,7.0,66,0.00,,,-99.99,,2013-03-07 19:43:00,
2013-03-07 14:52:00,38.0,28.0,-100.00,West,280,3.0,8.0,65,0.00,,,-99.99,,2013-03-07 19:52:00,
2013-03-07 15:02:00,39.0,28.0,-100.00,WNW,295,3.0,6.0,64,0.00,,,-99.99,,2013-03-07 20:02:00,
2013-03-07 15:13:00,41.0,29.0,-100.00,SW,235,2.0,8.0,64,0.00,,,-99.99,,2013-03-07 20:13:00,
2013-03-07 15:22:00,39.0,28.0,-100.00,West,275,3.0,9.0,63,0.00,,,-99.99,,2013-03-07 20:22:00,
2013-03-07 15:33:00,39.0,28.0,-100.00,WSW,245,3.0,10.0,63,0.00,,,-99.99,,2013-03-07 20:33:00,
2013-03-07 15:43:00,39.0,28.0,-100.00,SSW,210,2.0,9.0,65,0.00,,,-99.99,,2013-03-07 20:43:00,
2013-03-07 15:53:00,38.0,28.0,-100.00,West,265,4.0,9.0,65,0.00,,,-99.99,,2013-03-07 20:53:00,
2013-03-07 16:03:00,37.0,28.0,-100.00,SSW,200,4.0,10.0,67,0.00,,,-99.99,,2013-03-07 21:03:00,
2013-03-07 16:12:00,37.0,27.0,-100.00,WSW,245,4.0,10.0,67,0.00,,,-99.99,,2013-03-07 21:12:00,
2013-03-07 16:22:00,37.0,28.0,-100.00,WSW,250,4.0,8.0,67,0.00,,,-99.99,,2013-03-07 21:22:00,
2013-03-07 16:33:00,37.0,27.0,-100.00,SW,220,6.0,11.0,67,0.00,,,-99.99,,2013-03-07 21:33:00,
2013-03-07 16:43:00,37.0,27.0,-100.00,WSW,240,5.0,9.0,67,0.00,,,-99.99,,2013-03-07 21:43:00,
2013-03-07 16:52:00,37.0,27.0,-100.00,WSW,245,5.0,9.0,67,0.00,,,-99.99,,2013-03-07 21:52:00,
2013-03-07 17:02:00,37.0,27.0,-100.00,WSW,245,2.0,8.0,68,0.00,,,-99.99,,2013-03-07 22:02:00,
2013-03-07 17:12:00,37.0,28.0,-100.00,SW,225,1.0,6.0,68,0.00,,,-99.99,,2013-03-07 22:12:00,
2013-03-07 17:22:00,37.0,27.0,-100.00,WSW,250,2.0,6.0,68,0.00,,,-99.99,,2013-03-07 22:22:00,
2013-03-07 17:33:00,37.0,27.0,-100.00,WSW,240,2.0,5.0,68,0.00,,,-99.99,,2013-03-07 22:33:00,
2013-03-07 17:43:00,37.0,27.0,-100.00,South,185,1.0,6.0,68,0.00,,,-99.99,,2013-03-07 22:43:00,
2013-03-07 17:53:00,37.0,27.0,-100.00,SW,230,1.0,6.0,67,0.00,,,-99.99,,2013-03-07 22:53:00,
2013-03-07 18:03:00,37.0,26.0,-100.00,WSW,240,2.0,6.0,66,0.00,,,-99.99,,2013-03-07 23:03:00,
2013-03-07 18:13:00,36.0,26.0,-100.00,WSW,240,3.0,7.0,67,0.00,,,-99.99,,2013-03-07 23:13:00,
2013-03-07 18:22:00,36.0,26.0,-100.00,SW,235,4.0,6.0,67,0.00,,,-99.99,,2013-03-07 23:22:00,
2013-03-07 18:34:00,36.0,26.0,-100.00,SW,235,2.0,6.0,66,0.00,,,-99.99,,2013-03-07 23:34:00,
2013-03-07 18:43:00,36.0,26.0,-100.00,WSW,245,2.0,7.0,66,0.00,,,-99.99,,2013-03-07 23:43:00,
2013-03-07 18:53:00,35.0,26.0,-100.00,WSW,255,2.0,7.0,68,0.00,,,-99.99,,2013-03-07 23:53:00,
2013-03-07 19:04:00,35.0,26.0,-100.00,West,260,2.0,7.0,68,0.00,,,-99.99,,2013-03-08 00:04:00,
2013-03-07 19:13:00,35.0,26.0,-100.00,WSW,240,3.0,6.0,68,0.00,,,-99.99,,2013-03-08 00:13:00,
2013-03-07 19:23:00,35.0,26.0,-100.00,SW,235,4.0,9.0,67,0.00,,,-99.99,,2013-03-08 00:23:00,
2013-03-07 19:34:00,35.0,26.0,-100.00,WSW,240,2.0,5.0,68,0.00,,,-99.99,,2013-03-08 00:34:00,
2013-03-07 19:44:00,35.0,26.0,-100.00,SW,235,3.0,7.0,69,0.00,,,-99.99,,2013-03-08 00:44:00,
2013-03-07 19:52:00,35.0,26.0,-100.00,SW,235,2.0,6.0,69,0.00,,,-99.99,,2013-03-08 00:52:00,
2013-03-07 20:02:00,34.0,26.0,-100.00,WSW,240,1.0,6.0,70,0.00,,,-99.99,,2013-03-08 01:02:00,
2013-03-07 20:11:00,34.0,26.0,-100.00,WSW,245,2.0,3.0,70,0.00,,,-99.99,,2013-03-08 01:11:00,
2013-03-07 20:22:00,34.0,26.0,-100.00,WNW,285,2.0,5.0,70,0.00,,,-99.99,,2013-03-08 01:22:00,
2013-03-07 20:33:00,34.0,25.0,-100.00,West,270,2.0,6.0,68,0.00,,,-99.99,,2013-03-08 01:33:00,
2013-03-07 20:42:00,34.0,25.0,-100.00,West,270,3.0,5.0,67,0.00,,,-99.99,,2013-03-08 01:42:00,
2013-03-07 20:52:00,34.0,25.0,-100.00,West,270,2.0,5.0,67,0.00,,,-99.99,,2013-03-08 01:52:00,
2013-03-07 21:02:00,34.0,25.0,-100.00,West,265,3.0,6.0,68,0.00,,,-99.99,,2013-03-08 02:02:00,
2013-03-07 21:12:00,34.0,24.0,-100.00,West,280,3.0,7.0,67,0.00,,,-99.99,,2013-03-08 02:12:00,
2013-03-07 21:22:00,34.0,24.0,-100.00,West,275,4.0,7.0,66,0.00,,,-99.99,,2013-03-08 02:22:00,
2013-03-07 21:32:00,34.0,23.0,-100.00,West,270,6.0,9.0,64,0.00,,,-99.99,,2013-03-08 02:32:00,
2013-03-07 21:42:00,34.0,23.0,-100.00,WNW,285,4.0,9.0,63,0.00,,,-99.99,,2013-03-08 02:42:00,
2013-03-07 21:52:00,34.0,23.0,-100.00,West,280,4.0,9.0,63,0.00,,,-99.99,,2013-03-08 02:52:00,
2013-03-07 22:02:00,34.0,23.0,-100.00,WNW,285,4.0,8.0,63,0.00,,,-99.99,,2013-03-08 03:02:00,
2013-03-07 22:12:00,33.0,22.0,-100.00,West,280,2.0,6.0,63,0.00,,,-99.99,,2013-03-08 03:12:00,
2013-03-07 22:22:00,33.0,22.0,-100.00,West,280,1.0,5.0,63,0.00,,,-99.99,,2013-03-08 03:22:00,
2013-03-07 22:33:00,33.0,22.0,-100.00,West,270,1.0,3.0,62,0.00,,,-99.99,,2013-03-08 03:33:00,
2013-03-07 22:43:00,33.0,22.0,-100.00,West,265,1.0,3.0,64,0.00,,,-99.99,,2013-03-08 03:43:00,
2013-03-07 22:52:00,33.0,22.0,-100.00,WNW,300,2.0,4.0,64,0.00,,,-99.99,,2013-03-08 03:52:00,
2013-03-07 23:02:00,33.0,22.0,-100.00,WNW,285,4.0,7.0,64,0.00,,,-99.99,,2013-03-08 04:02:00,
2013-03-07 23:11:00,33.0,23.0,-100.00,WNW,295,4.0,7.0,66,0.00,,,-99.99,,2013-03-08 04:11:00,
2013-03-07 23:22:00,33.0,23.0,-100.00,NW,305,4.0,7.0,65,0.00,,,-99.99,,2013-03-08 04:22:00,
2013-03-07 23:32:00,33.0,23.0,-100.00,NW,320,2.0,5.0,67,0.00,,,-99.99,,2013-03-08 04:32:00,
2013-03-07 23:42:00,33.0,23.0,-100.00,NW,315,2.0,5.0,68,0.00,,,-99.99,,2013-03-08 04:42:00,
2013-03-07 23:52:00,32.0,24.0,-100.00,NW,320,2.0,5.0,69,0.00,,,-99.99,,2013-03-08 04:52:00,